Waarnemingen

Advertentie
Mijn weer
Cabo Busto, Spanje (8010): temperatuur & dauwpunt: 09.11.2018 20:00:00 - 15.11.2018 20:00:00 (CET)Cabo Busto, Spanje (8010): windsnelheid & windstoten: 09.11.2018 20:00:00 - 15.11.2018 20:00:00 (CET)Cabo Busto, Spanje (8010): windrichting: 09.11.2018 20:00:00 - 15.11.2018 20:00:00 (CET)Cabo Busto, Spanje (8010): luchtdruk: 09.11.2018 20:00:00 - 15.11.2018 20:00:00 (CET)Cabo Busto, Spanje (8010): zicht: 09.11.2018 20:00:00 - 15.11.2018 20:00:00 (CET)Cabo Busto, Spanje (8010): Zonneschijnduur: 09.11.2018 20:00:00 - 15.11.2018 20:00:00 (CET)Cabo Busto, Spanje (8010): neerslag: 09.11.2018 20:00:00 - 15.11.2018 20:00:00 (CET)
Datum & Tijd tt [°C] td [°C] ff [km/u] ff [kn] fx [km/u] fx [kn] dd ppp [hPa] vv [km] sd [min] rr [mm]
15.11.2018 20:00:00 - - - - - - - - - - -
15.11.2018 19:00:00 15,6 10,2 11 6 22 12 O 1017,2 20 0 -
15.11.2018 18:00:00 16,8 9,4 13 7 34 18 O 1016,5 20 31 0,0
15.11.2018 17:00:00 17,4 9,3 17 9 29 16 O 1015,9 20 60 0,0
15.11.2018 16:00:00 17,8 10,6 13 7 29 16 O 1015,4 20 60 0,0
15.11.2018 15:00:00 18,5 9,3 11 6 18 10 O 1015,5 20 57 0,0
15.11.2018 14:00:00 17,4 10,3 9 5 15 8 O 1016,3 20 13 0,0
15.11.2018 13:00:00 18,8 11,1 9 5 11 6 O 1016,4 20 51 -
15.11.2018 12:00:00 18,4 11,2 6 3 16 9 ZO 1016,6 20 60 0,0
15.11.2018 11:00:00 16,3 10,6 10 5 21 11 ZZO 1016,4 20 60 0,0
15.11.2018 10:00:00 13,8 9,0 16 8 23 12 ZZO 1016,2 20 9 0,0
15.11.2018 09:00:00 12,3 8,4 14 8 21 11 ZZO 1015,5 20 4 0,0
15.11.2018 08:00:00 11,7 8,1 14 8 18 10 ZZO 1015,1 20 0 0,0
15.11.2018 07:00:00 12,0 7,3 10 5 18 10 Z 1014,5 20 0 -
15.11.2018 06:00:00 13,4 8,3 14 7 24 13 WZW 1013,9 20 0 0,0
15.11.2018 05:00:00 13,6 7,8 20 11 27 15 ZO 1013,5 20 0 0,0
15.11.2018 04:00:00 12,3 7,4 11 6 21 11 ZZO 1013,9 20 0 0,0
15.11.2018 03:00:00 11,4 7,3 15 8 19 11 ZZO 1013,9 20 0 0,0
15.11.2018 02:00:00 12,2 7,8 9 5 27 14 ZZW 1014,1 20 0 0,0
15.11.2018 01:00:00 12,2 7,8 16 8 26 14 ZZO 1014,5 20 0 -
15.11.2018 00:00:00 12,6 8,3 10 5 23 12 Z 1014,9 20 0 0,0
14.11.2018 23:00:00 12,1 8,5 14 8 22 12 Z 1015,4 20 0 0,0
14.11.2018 22:00:00 12,8 9,0 14 7 23 12 ZO 1015,7 20 0 0,0
14.11.2018 21:00:00 12,5 8,5 14 8 20 11 ZZO 1016,1 20 0 0,0
14.11.2018 20:00:00 13,1 9,2 12 6 18 10 OZO 1016,6 20 0 0,0
14.11.2018 19:00:00 13,3 9,3 12 6 16 9 O 1016,8 20 0 -
14.11.2018 18:00:00 13,9 8,8 8 4 10 6 OZO 1016,9 18 48 0,0
14.11.2018 17:00:00 14,9 9,7 8 4 13 7 OZO 1017,0 20 60 0,0
14.11.2018 16:00:00 15,3 9,8 9 5 13 7 O 1017,1 20 60 0,0
14.11.2018 15:00:00 15,3 8,8 8 5 13 7 O 1017,4 20 60 0,0
14.11.2018 14:00:00 14,6 9,8 4 2 7 4 NO 1018,0 9 60 0,0
14.11.2018 13:00:00 14,3 9,6 3 2 10 5 NNO 1018,7 13 60 -
14.11.2018 12:00:00 15,3 9,2 5 3 36 19 NW 1019,3 8 60 0,0
14.11.2018 11:00:00 14,1 8,9 3 2 14 8 ZW 1019,8 20 60 0,0
14.11.2018 10:00:00 11,0 6,7 13 7 18 10 ZZO 1020,1 20 60 0,0
14.11.2018 09:00:00 9,3 5,8 14 8 22 12 ZZO 1020,0 20 14 0,0
14.11.2018 08:00:00 8,7 5,5 18 10 25 14 ZZO 1019,5 20 0 0,0
14.11.2018 07:00:00 9,1 5,6 19 10 23 13 ZZO 1019,8 20 0 -
14.11.2018 06:00:00 8,6 5,5 16 9 22 12 ZZO 1020,2 20 0 0,0
14.11.2018 05:00:00 8,7 5,6 16 9 20 11 ZZO 1020,5 20 0 0,0
14.11.2018 04:00:00 9,1 5,8 18 10 22 12 ZZO 1021,0 20 0 0,0
14.11.2018 03:00:00 9,3 6,1 17 9 24 13 ZZO 1021,2 20 0 0,0
14.11.2018 02:00:00 9,5 6,2 17 9 23 12 ZZO 1021,8 20 0 0,0
14.11.2018 01:00:00 9,3 6,2 16 9 23 12 ZZO 1022,6 20 0 -
14.11.2018 00:00:00 9,5 6,5 14 7 23 12 ZZO 1023,1 20 0 0,0
13.11.2018 23:00:00 9,8 6,8 19 10 24 13 ZZO 1023,3 20 0 0,0
13.11.2018 22:00:00 10,2 7,4 16 9 22 12 ZZO 1023,5 20 0 0,0
13.11.2018 21:00:00 10,2 7,6 14 8 20 11 ZZO 1023,6 20 0 0,0
13.11.2018 20:00:00 10,5 8,1 13 7 15 8 ZZO 1023,7 20 0 0,0
13.11.2018 19:00:00 11,2 8,3 6 3 17 9 ZZW 1023,7 18 0 -
13.11.2018 18:00:00 14,0 11,0 10 5 24 13 O 1023,6 4,6 45 0,0
13.11.2018 17:00:00 14,5 10,9 16 9 29 15 ONO 1023,8 8 60 0,0
13.11.2018 16:00:00 15,1 10,5 12 6 28 15 NO 1023,9 7 60 0,0
13.11.2018 15:00:00 15,0 10,4 12 7 30 16 NO 1024,0 8 60 0,0
13.11.2018 14:00:00 14,7 9,3 10 6 22 12 ONO 1024,5 17 60 0,0
13.11.2018 13:00:00 14,1 8,9 8 4 16 8 NO 1025,3 7 60 -
13.11.2018 12:00:00 13,5 7,7 5 3 15 8 OZO 1026,1 5 60 0,0
13.11.2018 11:00:00 11,4 6,4 10 6 23 12 ZZO 1026,6 20 60 0,0
13.11.2018 10:00:00 8,9 4,6 18 10 24 13 ZZO 1026,4 20 60 0,0
13.11.2018 09:00:00 7,1 4,3 19 10 24 13 ZZO 1026,0 20 17 0,0
13.11.2018 08:00:00 7,6 4,5 19 10 33 18 ZZO 1025,0 20 0 0,0
13.11.2018 07:00:00 7,3 4,3 25 13 32 17 ZZO 1025,0 20 0 -
13.11.2018 06:00:00 7,3 4,6 22 12 29 16 ZZO 1025,0 20 0 0,0
13.11.2018 05:00:00 7,5 4,8 20 11 29 15 ZZO 1024,6 20 0 0,0
13.11.2018 04:00:00 7,8 5,3 19 10 25 13 ZZO 1024,4 20 0 0,0
13.11.2018 03:00:00 8,0 5,5 18 10 26 14 ZZO 1023,6 20 0 0,0
13.11.2018 02:00:00 8,5 5,8 21 11 27 14 ZZO 1023,2 20 0 0,0
13.11.2018 01:00:00 9,1 6,2 19 10 26 14 ZZO 1023,2 20 0 -
13.11.2018 00:00:00 9,4 6,7 19 11 26 14 ZZO 1022,9 20 0 0,0
12.11.2018 23:00:00 9,6 7,0 19 10 24 13 ZZO 1022,6 20 0 0,0
12.11.2018 22:00:00 9,8 7,6 17 9 21 11 ZZO 1022,2 20 0 0,0
12.11.2018 21:00:00 10,0 7,4 16 9 19 10 ZZO 1021,5 20 0 0,0
12.11.2018 20:00:00 11,0 7,6 12 6 17 9 ZZO 1020,7 20 0 0,0
12.11.2018 19:00:00 11,7 8,1 13 7 16 8 ZZO 1019,3 20 0 -
12.11.2018 18:00:00 12,6 8,1 8 4 9 5 ZO 1018,4 20 28 0,0
12.11.2018 17:00:00 15,3 9,2 3 2 7 4 O 1017,6 13 60 0,0
12.11.2018 16:00:00 15,3 9,2 4 2 9 5 O 1016,9 11 60 0,0
12.11.2018 15:00:00 16,2 10,9 4 2 13 7 WNW 1016,4 1,9 60 0,0
12.11.2018 14:00:00 15,2 8,9 7 4 13 7 NW 1016,3 17 60 0,0
12.11.2018 13:00:00 15,4 8,7 4 2 10 5 OZO 1016,0 9 60 -
12.11.2018 12:00:00 15,0 8,7 4 2 10 5 WNW 1015,8 3,9 60 0,0
12.11.2018 11:00:00 13,4 7,8 9 5 21 11 ZZO 1016,0 20 60 0,0
12.11.2018 10:00:00 10,7 6,8 17 9 24 13 ZZO 1015,3 20 60 0,0
12.11.2018 09:00:00 8,8 5,8 17 9 22 12 ZZO 1014,2 20 15 0,0
12.11.2018 08:00:00 8,6 5,9 15 8 21 11 ZZO 1013,5 20 0 0,0
12.11.2018 07:00:00 8,6 5,9 10 5 18 10 ZZO 1013,2 20 0 -
12.11.2018 06:00:00 9,0 6,4 9 5 19 10 Z 1012,3 20 0 0,0
12.11.2018 05:00:00 9,2 6,7 11 6 18 10 Z 1011,4 20 0 0,0
12.11.2018 04:00:00 9,9 7,1 11 6 17 9 Z 1010,8 20 0 0,0
12.11.2018 03:00:00 10,5 7,6 12 6 16 9 Z 1010,0 20 0 0,0
12.11.2018 02:00:00 11,0 8,3 11 6 18 10 Z 1009,5 20 0 0,0
12.11.2018 01:00:00 11,6 8,4 8 4 12 7 WZW 1009,4 20 0 -
12.11.2018 00:00:00 11,4 8,9 3 2 9 5 ZZO 1008,8 20 0 0,0
11.11.2018 23:00:00 11,6 9,6 8 4 21 12 ZZO 1008,7 20 0 0,0
11.11.2018 22:00:00 11,8 9,9 15 8 21 11 ZZO 1008,3 20 0 0,2
11.11.2018 21:00:00 12,1 9,8 8 4 11 6 Z 1008,5 10 0 1,0
11.11.2018 20:00:00 12,2 9,8 8 4 14 8 ZZO 1008,3 8 0 0,6
11.11.2018 19:00:00 12,9 10,0 4 2 12 6 ZZO 1008,0 4,2 0 -
11.11.2018 18:00:00 13,1 9,9 3 2 29 15 WZW 1007,4 8 0 0,4
11.11.2018 17:00:00 13,9 10,6 5 3 13 7 ZO 1007,3 15 0 0,0
11.11.2018 16:00:00 14,4 11,0 5 3 11 6 O 1006,4 1,9 0 0,2
11.11.2018 15:00:00 14,5 11,1 5 3 9 5 ZO 1006,5 20 0 0,0
11.11.2018 14:00:00 14,5 11,1 6 3 14 8 ZO 1006,9 20 0 0,0
11.11.2018 13:00:00 14,4 10,4 10 6 14 7 WZW 1007,4 5 0 -
11.11.2018 12:00:00 14,7 11,1 6 3 9 5 ZZW 1007,6 3,6 0 0,0
11.11.2018 11:00:00 14,3 10,9 4 2 37 20 W 1007,0 6 0 0,0
11.11.2018 10:00:00 13,7 10,3 29 16 66 36 W 1006,5 9 0 0,0
11.11.2018 09:00:00 16,9 9,8 36 20 52 28 WZW 1004,4 20 0 0,0
11.11.2018 08:00:00 16,2 10,3 18 10 43 23 W 1004,2 15 0 0,0
11.11.2018 07:00:00 16,8 9,2 27 14 49 26 WZW 1003,3 15 0 -
11.11.2018 06:00:00 17,5 8,7 24 13 56 30 WZW 1003,0 17 0 0,0
11.11.2018 05:00:00 17,8 8,7 19 10 68 37 WZW 1003,0 13 0 0,0
11.11.2018 04:00:00 17,6 8,1 22 12 63 34 ZW 1001,9 15 0 0,0
11.11.2018 03:00:00 17,4 8,0 36 20 64 35 WZW 1002,7 17 0 0,0
11.11.2018 02:00:00 17,2 8,7 35 19 69 37 WZW 1004,1 18 0 0,0
11.11.2018 01:00:00 16,8 8,3 27 15 60 32 W 1004,0 19 0 -
11.11.2018 00:00:00 17,1 7,7 45 25 74 40 W 1003,9 20 0 0,0
10.11.2018 23:00:00 17,1 7,7 46 25 87 47 W 1004,3 20 0 0,0
10.11.2018 22:00:00 17,4 7,1 50 27 92 50 WZW 1002,8 20 0 0,0
10.11.2018 21:00:00 17,1 7,4 61 33 90 48 WZW 1002,8 20 0 0,0
10.11.2018 20:00:00 16,7 7,1 47 26 88 47 W 1003,8 20 0 0,0
10.11.2018 19:00:00 16,6 6,1 48 26 83 45 W 1003,7 20 0 -
10.11.2018 18:00:00 16,8 6,8 44 24 76 41 WZW 1003,8 20 12 0,0
10.11.2018 17:00:00 17,7 7,1 54 29 74 40 W 1003,1 20 59 0,0
10.11.2018 16:00:00 17,6 8,7 52 28 76 41 W 1002,5 20 59 0,0
10.11.2018 15:00:00 17,1 11,1 27 14 44 24 W 1003,2 20 33 0,0
10.11.2018 14:00:00 16,2 10,0 29 15 - - W 1003,4 20 20 0,0
10.11.2018 13:00:00 15,6 9,4 32 17 57 31 W 1003,5 19 1 -
10.11.2018 12:00:00 16,3 7,6 40 21 71 38 W 1003,8 20 0 0,0
10.11.2018 11:00:00 16,0 7,4 29 15 67 36 W 1004,3 20 0 0,0
10.11.2018 10:00:00 15,5 7,0 29 16 61 33 WZW 1003,8 20 19 0,0
10.11.2018 09:00:00 14,6 7,6 21 11 - - W 1004,5 17 20 0,0
10.11.2018 08:00:00 13,5 10,9 21 11 37 20 W 1004,2 8 0 0,0
10.11.2018 07:00:00 13,7 11,8 19 10 53 29 W 1004,1 4,5 0 -
10.11.2018 06:00:00 14,2 11,6 39 21 - - W 1003,0 4,6 0 0,2
10.11.2018 05:00:00 15,2 11,6 17 9 36 19 W 1002,3 9 0 0,0
10.11.2018 04:00:00 15,1 11,3 22 12 37 20 W 1002,5 11 0 0,0
10.11.2018 03:00:00 15,6 13,1 22 12 44 24 ZZW 1002,8 20 0 1,2
10.11.2018 02:00:00 13,7 11,9 36 19 65 35 W 1003,5 4,3 0 1,4
10.11.2018 01:00:00 13,5 11,6 36 20 74 40 W 1003,5 7 0 -
10.11.2018 00:00:00 16,1 12,4 36 19 - - W 1002,6 5 0 0,2
09.11.2018 23:00:00 20,0 10,2 35 19 86 47 ZW 1001,3 20 0 0,2
09.11.2018 22:00:00 20,1 9,3 48 26 91 49 ZW 1002,0 20 0 0,0
09.11.2018 21:00:00 19,3 10,5 32 18 106 57 ZW 1002,4 20 0 0,0
09.11.2018 20:00:00 19,7 9,6 46 25 92 50 WZW 1003,7 19 0 0,0

tt = temperatuur
td = dauwpunt
ff = windsnelheid
fx = windstoten
dd = windrichting
ppp = luchtdruk
vv = zicht
sd = Zonneschijnduur
rr = neerslag

Weerstations in de omgeving